This is the latest recevied weather packets stored in our database for station/object WD7OO. If no packets are shown the sender has not sent any weather packets the latest 10 day(s).
| Time | Temp. | Humidity | Pressure | Rain* | Wind** | Luminosity | Snow |
|---|---|---|---|---|---|---|---|
| 1788640574 | 28.33° C | 81% | 1014 hPa | 0 mm | - | 114 W/m² | - |
| 1788640269 | 28.89° C | 79% | 1014 hPa | 0 mm | - | 141 W/m² | - |
| 1788639964 | 29.44° C | 78% | 1013.9 hPa | 0 mm | - | 89 W/m² | - |
| 1788639659 | 30° C | 75% | 1014 hPa | 0 mm | - | 538 W/m² | - |
| 1788639355 | 30° C | 77% | 1014.2 hPa | 0 mm | - | 268 W/m² | - |
| 1788639054 | 30° C | 76% | 1013.9 hPa | 0 mm | - | 527 W/m² | - |
| 1788638750 | 29.44° C | 79% | 1014.2 hPa | 0 mm | - | 494 W/m² | - |
| 1788638445 | 30.56° C | 76% | 1014.1 hPa | 0 mm | - | 147 W/m² | - |
| 1788638144 | 30° C | 75% | 1014.1 hPa | 0 mm | - | 573 W/m² | - |
| 1788637840 | 29.44° C | 75% | 1014 hPa | 0 mm | - | 553 W/m² | - |
| 1788637539 | 28.89° C | 79% | 1014.1 hPa | 0 mm | - | 553 W/m² | - |
| 1788637239 | 30° C | 77% | 1014.2 hPa | 0 mm | - | 138 W/m² | - |
| 1788636934 | 29.44° C | 78% | 1014.2 hPa | 0 mm | - | 683 W/m² | - |
| 1788636629 | 28.89° C | 83% | 1014 hPa | 0 mm | - | 534 W/m² | - |
| 1788636324 | 28.89° C | 81% | 1014.3 hPa | 0 mm | - | 135 W/m² | - |
| 1788636021 | 30.56° C | 75% | 1014.1 hPa | 0 mm | - | 100 W/m² | - |
| 1788635719 | 30° C | 78% | 1014.1 hPa | 0 mm | - | 750 W/m² | - |
| 1788635418 | 30° C | 78% | 1014.3 hPa | 0 mm | - | 719 W/m² | - |
| 1788635141 | 30° C | 77% | 1014.1 hPa | 0 mm | - | 241 W/m² | - |
| 1788634810 | 29.44° C | 80% | 1014.3 hPa | 0 mm | - | 279 W/m² | - |
| 1788634505 | 30° C | 77% | 1014.3 hPa | 0 mm | - | 239 W/m² | - |
| 1788634204 | 30° C | 76% | 1014.3 hPa | 0 mm | - | 356 W/m² | - |
| 1788633899 | 29.44° C | 80% | 1014.3 hPa | 0 mm | - | 751 W/m² | - |
| 1788633597 | 28.33° C | 82% | 1014.2 hPa | 0 mm | - | 695 W/m² | - |
| 1788633297 | 28.33° C | 82% | 1014.4 hPa | 0 mm | - | 179 W/m² | - |
* Rain latest hour (hover to see other rain measurements)
** Current wind speed in m/s (hover to see current wind gust speed)